Tiempo cada hora Barpeta

Hoy, 26 Febrero, Viernes

Tiempo Temperatura Precipitaciones Viento Presión Humedad
00:00 +20°C° 0 mm 0 mps 753 mmHg 38%
01:00 +20°C° 0 mm 0 mps 752 mmHg 39%
02:00 +19°C° 0 mm 0 mps 751 mmHg 41%
03:00 +19°C° 0 mm 0 mps 751 mmHg 42%
04:00 +20°C° 0 mm 1 mps 751 mmHg 43%
05:00 +20°C° 0 mm 1 mps 751 mmHg 44%
06:00 +22°C° 0 mm 1 mps 752 mmHg 46%
07:00 +23°C° 0 mm 2 mps 752 mmHg 42%
08:00 +25°C° 0 mm 2 mps 753 mmHg 39%
09:00 +26°C° 0 mm 2 mps 754 mmHg 36%
10:00 +28°C° 0 mm 2 mps 753 mmHg 33%
11:00 +30°C° 0 mm 2 mps 753 mmHg 29%
12:00 +32°C° 0 mm 1 mps 753 mmHg 26%
13:00 +32°C° 0 mm 1 mps 752 mmHg 25%
14:00 +34°C° 0 mm 2 mps 752 mmHg 23%
15:00 +34°C° 0 mm 2 mps 751 mmHg 21%
16:00 +32°C° 0 mm 2 mps 751 mmHg 24%
17:00 +30°C° 0 mm 2 mps 752 mmHg 27%
18:00 +29°C° 0 mm 3 mps 752 mmHg 29%
19:00 +27°C° 0 mm 2 mps 752 mmHg 32%
20:00 +26°C° 0 mm 2 mps 753 mmHg 35%
21:00 +25°C° 0 mm 2 mps 753 mmHg 38%
22:00 +24°C° 0 mm 1 mps 753 mmHg 39%
23:00 +24°C° 0 mm 1 mps 753 mmHg 40%

Mañana, 27 Febrero, Sábado

Tiempo Temperatura Precipitaciones Viento Presión Humedad
00:00 +23°C° 0 mm 1 mps 753 mmHg 42%
01:00 +22°C° 0 mm 1 mps 752 mmHg 43%
02:00 +22°C° 0 mm 1 mps 752 mmHg 45%
03:00 +21°C° 0 mm 1 mps 751 mmHg 47%
04:00 +21°C° 0 mm 1 mps 751 mmHg 47%
05:00 +20°C° 0 mm 2 mps 751 mmHg 48%
06:00 +19°C° 0 mm 2 mps 752 mmHg 49%
07:00 +21°C° 0 mm 2 mps 752 mmHg 45%
08:00 +24°C° 0 mm 2 mps 753 mmHg 41%
09:00 +26°C° 0 mm 3 mps 753 mmHg 36%
10:00 +29°C° 0 mm 2 mps 753 mmHg 33%
11:00 +31°C° 0 mm 2 mps 753 mmHg 29%
12:00 +33°C° 0 mm 1 mps 753 mmHg 25%
13:00 +34°C° 0 mm 2 mps 752 mmHg 23%
14:00 +35°C° 0 mm 3 mps 752 mmHg 21%
15:00 +35°C° 0 mm 3 mps 751 mmHg 18%
16:00 +34°C° 0 mm 3 mps 751 mmHg 21%
17:00 +31°C° 0 mm 3 mps 752 mmHg 23%
18:00 +29°C° 0 mm 2 mps 752 mmHg 26%
19:00 +28°C° 0 mm 3 mps 752 mmHg 29%
20:00 +27°C° 0 mm 3 mps 753 mmHg 31%
21:00 +26°C° 0 mm 3 mps 754 mmHg 34%
22:00 +26°C° 0 mm 2 mps 754 mmHg 36%
23:00 +25°C° 0 mm 2 mps 753 mmHg 38%

Pasado mañana, 28 Febrero, Domingo

Tiempo Temperatura Precipitaciones Viento Presión Humedad
00:00 +24°C° 0 mm 2 mps 753 mmHg 40%
01:00 +23°C° 0 mm 1 mps 753 mmHg 41%
02:00 +23°C° 0 mm 1 mps 752 mmHg 43%
03:00 +22°C° 0 mm 1 mps 752 mmHg 45%
04:00 +22°C° 0 mm 1 mps 752 mmHg 45%
05:00 +20°C° 0 mm 2 mps 752 mmHg 46%
06:00 +20°C° 0 mm 2 mps 752 mmHg 46%
07:00 +22°C° 0 mm 3 mps 753 mmHg 42%
08:00 +25°C° 0 mm 3 mps 754 mmHg 38%
09:00 +28°C° 0 mm 4 mps 755 mmHg 34%
10:00 +29°C° 0 mm 4 mps 754 mmHg 32%
11:00 +32°C° 0 mm 4 mps 754 mmHg 29%
12:00 +34°C° 0 mm 4 mps 754 mmHg 26%
13:00 +35°C° 0 mm 3 mps 753 mmHg 25%
14:00 +35°C° 0 mm 2 mps 753 mmHg 23%
15:00 +35°C° 0 mm 1 mps 752 mmHg 22%
16:00 +33°C° 0 mm 1 mps 753 mmHg 25%
17:00 +32°C° 0 mm 1 mps 753 mmHg 27%
18:00 +30°C° 0 mm 2 mps 753 mmHg 30%
19:00 +29°C° 0 mm 2 mps 754 mmHg 31%
20:00 +29°C° 0 mm 3 mps 755 mmHg 32%
21:00 +28°C° 0 mm 3 mps 755 mmHg 34%
22:00 +27°C° 0 mm 3 mps 755 mmHg 36%
23:00 +26°C° 0 mm 3 mps 755 mmHg 38%

1 Marzo, Lunes

Tiempo Temperatura Precipitaciones Viento Presión Humedad
00:00 +25°C° 0 mm 2 mps 755 mmHg 40%
01:00 +25°C° 0 mm 2 mps 754 mmHg 42%
02:00 +24°C° 0 mm 2 mps 754 mmHg 43%
03:00 +23°C° 0 mm 2 mps 754 mmHg 45%
04:00 +22°C° 0 mm 3 mps 754 mmHg 47%
05:00 +22°C° 0 mm 3 mps 754 mmHg 48%
06:00 +22°C° 0 mm 3 mps 754 mmHg 50%
07:00 +23°C° 0 mm 4 mps 755 mmHg 47%
08:00 +26°C° 0 mm 5 mps 755 mmHg 43%
09:00 +28°C° 0 mm 6 mps 756 mmHg 40%
10:00 +29°C° 0 mm 6 mps 756 mmHg 37%
11:00 +30°C° 0 mm 6 mps 755 mmHg 35%
12:00 +33°C° 0 mm 6 mps 755 mmHg 33%
13:00 +33°C° 0 mm 5 mps 755 mmHg 31%
14:00 +34°C° 0 mm 4 mps 754 mmHg 30%
15:00 +34°C° 0 mm 3 mps 754 mmHg 29%
16:00 +32°C° 0 mm 4 mps 754 mmHg 32%
17:00 +30°C° 0 mm 4 mps 754 mmHg 35%
18:00 +28°C° 0 mm 4 mps 754 mmHg 39%
19:00 +27°C° 0 mm 3 mps 755 mmHg 40%
20:00 +26°C° 0 mm 3 mps 755 mmHg 42%
21:00 +25°C° 0 mm 3 mps 756 mmHg 44%
22:00 +25°C° 0 mm 2 mps 756 mmHg 46%
23:00 +24°C° 0 mm 2 mps 756 mmHg 47%

2 Marzo, Martes

Tiempo Temperatura Precipitaciones Viento Presión Humedad
00:00 +23°C° 0 mm 2 mps 755 mmHg 48%
01:00 +23°C° 0 mm 2 mps 755 mmHg 49%
02:00 +23°C° 0 mm 2 mps 755 mmHg 50%
03:00 +21°C° 0 mm 3 mps 754 mmHg 51%
04:00 +21°C° 0 mm 2 mps 754 mmHg 52%
05:00 +20°C° 0 mm 2 mps 754 mmHg 53%
06:00 +20°C° 0 mm 2 mps 755 mmHg 53%
07:00 +22°C° 0 mm 3 mps 755 mmHg 50%
08:00 +25°C° 0 mm 5 mps 756 mmHg 46%
09:00 +27°C° 0 mm 6 mps 757 mmHg 43%
10:00 +29°C° 0 mm 6 mps 756 mmHg 39%
11:00 +32°C° 0 mm 6 mps 756 mmHg 35%
12:00 +33°C° 0 mm 6 mps 756 mmHg 31%
13:00 +34°C° 0 mm 4 mps 755 mmHg 29%
14:00 +35°C° 0 mm 2 mps 754 mmHg 26%
15:00 +34°C° 0 mm 1 mps 754 mmHg 24%
16:00 +34°C° 0 mm 2 mps 754 mmHg 26%
17:00 +31°C° 0 mm 3 mps 754 mmHg 27%
18:00 +30°C° 0 mm 3 mps 754 mmHg 29%
19:00 +28°C° 0 mm 3 mps 754 mmHg 35%
20:00 +27°C° 0 mm 3 mps 754 mmHg 40%
21:00 +25°C° 0 mm 2 mps 755 mmHg 45%
22:00 +24°C° 0 mm 3 mps 755 mmHg 47%
23:00 +24°C° 0 mm 3 mps 755 mmHg 48%

3 Marzo, Miércoles

Tiempo Temperatura Precipitaciones Viento Presión Humedad
00:00 +22°C° 0 mm 3 mps 755 mmHg 49%
01:00 +22°C° 0 mm 3 mps 754 mmHg 50%
02:00 +22°C° 0 mm 3 mps 754 mmHg 51%
03:00 +21°C° 0 mm 3 mps 754 mmHg 51%
04:00 +21°C° 0 mm 3 mps 754 mmHg 52%
05:00 +20°C° 0 mm 3 mps 754 mmHg 52%
06:00 +20°C° 0 mm 3 mps 754 mmHg 52%
07:00 +22°C° 0 mm 4 mps 755 mmHg 48%
08:00 +26°C° 0 mm 5 mps 755 mmHg 43%
09:00 +28°C° 0 mm 6 mps 756 mmHg 39%
10:00 +30°C° 0 mm 6 mps 755 mmHg 35%
11:00 +33°C° 0 mm 6 mps 755 mmHg 32%
12:00 +35°C° 0 mm 5 mps 755 mmHg 28%
13:00 +35°C° 0 mm 4 mps 754 mmHg 26%
14:00 +36°C° 0 mm 3 mps 753 mmHg 23%
15:00 +36°C° 0 mm 2 mps 753 mmHg 21%
16:00 +35°C° 0 mm 2 mps 753 mmHg 22%
17:00 +32°C° 0 mm 2 mps 753 mmHg 24%
18:00 +31°C° 0 mm 2 mps 753 mmHg 25%
19:00 +30°C° 0 mm 2 mps 754 mmHg 29%
20:00 +29°C° 0 mm 2 mps 754 mmHg 32%
21:00 +27°C° 0 mm 2 mps 755 mmHg 35%
22:00 +27°C° 0 mm 1 mps 755 mmHg 36%
23:00 +26°C° 0 mm 1 mps 755 mmHg 38%
Mostrar más

Necesitamos Su Consentimiento

Meteoprog y nuestros Proveedores de Servicios pueden almacenar y acceder a sus datos personales como cookies, identificadores de dispositivo u otras tecnologías similares de su dispositivo y procesar dichos datos para personalizar contenido y anuncios, además de ofrecer funciones de redes sociales y analizar el tráfico.

  • Almacenar y/o acceder a información en su dispositivo

    Se puede almacenar o acceder a cookies, identificadores de dispositivo u otra información de su dispositivo para los fines anteriormente indicados.

  • Anuncios y contenido personalizados, medición de anuncios y contenido, percepciones del público, y desarrollo de productos

    Los anuncios y el contenido pueden personalizarse en base a su perfil. Se pueden añadir más datos para personalizar mejor los anuncios y contenidos. Se puede medir el rendimiento de los anuncios y contenidos. Se puede obtener la percepción sobre el público que ha visto los anuncios y contenidos. Dichos datos pueden usarse para desarrollar o mejorar la experiencia del usuario, sistemas y software.

Al hacer clic en ‘Estoy De Acuerdo’ usted permitirá el uso de las cookies, identificadores de dispositivo, balizas web u otras tecnologías similares indicadas. Su configuración puede cambiarse desde el navegador de su dispositivo.

Para ciertos fines, los intereses legítimos pueden ser considerados por encima del consentimiento. Puede leer más sobre ello en nuestra Política de Privacidad y Cookies.